Flight Information

DEPARTURE
SALT LAKE CITY, UT
Elevation:
4230
Runways:
HF - 60x60 - ASPH-G
16R/34L - 12000x150 - CONC-G
14/32 - 4893x150 - ASPH-G
17/35 - 9596x150 - ASPH-G
16L/34R - 12002x150 - ASPH-G
HB - 60x60 - ASPH-G
ATIS:
124.75 125.62 801-325-9749
Clearance Delivery:
127.3
Ground:
121.9 (RWY 17-35 and RWY 14-32)
123.775 (RWY 16R-34L and RWY 16L-34R)
Tower:
SALT LAKE CITY TOWER
119.05 (RWY 16L-34R)
118.3 (RWYS 14-32, 17-35)
132.65 (RWY 16R-34L)
DESTINATION
,
Elevation:
TPA:
1000 (est.)


6387.4 NM75° True-15° Var60° HDG

Flight Plan:
(click to file on line)

1. Type
2. Aircraft Identification
3. Aircraft Type / Special Equipment
4. True Airspeed
kts
5. Departure Airport
(ICAO code)
6. Arriving Airport
(ICAO code)
7. Cruising Altitude
ft
8. Alternate Airport
(ICAO code)
9. Route of Flight
10. Remarks


00:00:00 Departure ATIS: Destination ATIS:

Clearance Limit:
Route:
Altitude: Expect in minutes
Frequency:
Transponder: (7500 Hijack / 7600 Lost Comms / 7700 Emergency)


KSLC 030654Z 13006KT 10SM FEW080 FEW150 14/05 A3013 RMK AO2 SLP167 T01390050 402330117 $
Time: 2022-10-03T06:54:00Z
1664783019
Winds: 130 @ 6 kts
Visibility: 10.0 sm
Clouds (AGL): FEW 8000
FEW 15000
Temperature: 13.9 C
Dew Point: 5.0 C
Pressure: 30.129921 in Hgbr


Notes:

Data extracted from FAA Digital Chart Supplement. Effective: 0901Z Thursday, 27 JAN 2022 to 0900z Thursday, 24 MAR 2022
Current ATIS data is provided courtisy of PilotEdge.